This is the latest recevied weather packets stored in our database for station/object KI5GCD-13. If no packets are shown the sender has not sent any weather packets the latest 10 day(s).
| Time | Temp. | Humidity | Pressure | Rain* | Wind** | Luminosity | Snow |
|---|---|---|---|---|---|---|---|
| 1777928988 | 25.56° C | 56% | 1002.3 hPa | 0 mm | 1.34 m/s, 219° | - | - |
| 1777928687 | 25.56° C | 54% | 1002.6 hPa | 0 mm | 1.79 m/s, 280° | - | - |
| 1777928387 | 25.56° C | 52% | 1002.4 hPa | 0 mm | 1.79 m/s, 238° | - | - |
| 1777928087 | 26.11° C | 54% | 1002.6 hPa | 0 mm | 0.89 m/s, 261° | - | - |
| 1777927787 | 25.56° C | 54% | 1002.6 hPa | 0 mm | 1.79 m/s, 193° | - | - |
| 1777927487 | 25.56° C | 53% | 1002.7 hPa | 0 mm | 3.13 m/s, 206° | - | - |
| 1777927187 | 25.56° C | 53% | 1002.8 hPa | 0 mm | 3.58 m/s, 222° | - | - |
| 1777926887 | 26.11° C | 54% | 1002.8 hPa | 0 mm | 0.45 m/s, 236° | - | - |
| 1777926587 | 25.56° C | 54% | 1003 hPa | 0 mm | 1.79 m/s, 224° | - | - |
| 1777926287 | 25.56° C | 57% | 1002.9 hPa | 0 mm | 2.68 m/s, 280° | - | - |
| 1777925987 | 26.11° C | 53% | 1002.9 hPa | 0 mm | 1.79 m/s, 238° | - | - |
| 1777925688 | 25.56° C | 55% | 1003.1 hPa | 0 mm | 0.89 m/s, 201° | - | - |
| 1777925387 | 25° C | 55% | 1003.1 hPa | 0 mm | 1.79 m/s, 190° | - | - |
| 1777925087 | 25.56° C | 53% | 1003 hPa | 0 mm | 2.68 m/s, 201° | - | - |
| 1777924787 | 25.56° C | 53% | 1003.3 hPa | 0 mm | 4.02 m/s, 237° | - | - |
| 1777924487 | 25.56° C | 56% | 1003.1 hPa | 0 mm | 0.89 m/s, 208° | - | - |
| 1777924187 | 25° C | 54% | 1003.1 hPa | 0 mm | 2.68 m/s, 194° | - | - |
| 1777923887 | 25.56° C | 55% | 1003.3 hPa | 0 mm | 0.89 m/s, 59° | - | - |
| 1777923587 | 25.56° C | 54% | 1003.1 hPa | 0 mm | 2.24 m/s, 278° | - | - |
| 1777923287 | 25.56° C | 56% | 1003.2 hPa | 0 mm | 2.68 m/s, 194° | - | - |
| 1777922987 | 25.56° C | 54% | 1003.2 hPa | 0 mm | 4.02 m/s, 232° | - | - |
| 1777922687 | 25.56° C | 56% | 1003.2 hPa | 0 mm | 2.24 m/s, 169° | - | - |
| 1777922387 | 25.56° C | 57% | 1003.1 hPa | 0 mm | 2.68 m/s, 243° | - | - |
| 1777922087 | 25.56° C | 55% | 1003.4 hPa | 0 mm | 4.47 m/s, 239° | - | - |
| 1777921787 | 25.56° C | 55% | 1003.6 hPa | 0 mm | 3.58 m/s, 199° | - | - |
* Rain latest hour (hover to see other rain measurements)
** Current wind speed in m/s (hover to see current wind gust speed)